Time,TemperatureF,DewpointF,PressureIn,WindDirection,WindDirectionDegrees,WindSpeedMPH,WindSpeedGustMPH,Humidity,HourlyPrecipIn,Conditions,Clouds,dailyrainin,SoftwareType,DateUTC
2013-02-21 00:11:00,28.0,20.0,30.29,NW,325,1.0,3.0,70,0.00,,,0.00,,2013-02-21 06:11:00,
2013-02-21 00:21:00,27.0,19.0,30.29,NNW,337,0.0,2.0,70,0.00,,,0.00,,2013-02-21 06:21:00,
2013-02-21 00:31:00,27.0,19.0,30.29,NNW,337,0.0,2.0,71,0.00,,,0.00,,2013-02-21 06:31:00,
2013-02-21 00:41:00,27.0,19.0,30.29,NNW,337,0.0,2.0,71,0.00,,,0.00,,2013-02-21 06:41:00,
2013-02-21 00:51:00,27.0,19.0,30.29,NW,306,1.0,5.0,71,0.00,,,0.00,,2013-02-21 06:51:00,
2013-02-21 01:01:00,27.0,19.0,30.28,NW,306,0.0,2.0,72,0.00,,,0.00,,2013-02-21 07:01:00,
2013-02-21 01:11:00,27.0,19.0,30.28,NNW,329,0.0,3.0,72,0.00,,,0.00,,2013-02-21 07:11:00,
2013-02-21 01:21:00,27.0,19.0,30.28,NNW,329,0.0,3.0,72,0.00,,,0.00,,2013-02-21 07:21:00,
2013-02-21 01:32:00,27.0,19.0,30.29,NE,45,0.0,6.0,71,0.00,,,0.00,,2013-02-21 07:32:00,
2013-02-21 01:42:00,27.0,19.0,30.29,ENE,58,0.0,6.0,71,0.00,,,0.00,,2013-02-21 07:42:00,
2013-02-21 01:52:00,27.0,19.0,30.29,ENE,58,0.0,6.0,71,0.00,,,0.00,,2013-02-21 07:52:00,
2013-02-21 02:01:00,27.0,19.0,30.29,ENE,58,0.0,1.0,71,0.00,,,0.00,,2013-02-21 08:01:00,
2013-02-21 02:11:00,27.0,19.0,30.29,ENE,58,0.0,1.0,71,0.00,,,0.00,,2013-02-21 08:11:00,
2013-02-21 02:21:00,27.0,19.0,30.29,NE,34,0.0,2.0,72,0.00,,,0.00,,2013-02-21 08:21:00,
2013-02-21 02:32:00,26.0,19.0,30.27,NNE,25,0.0,2.0,73,0.00,,,0.00,,2013-02-21 08:32:00,
2013-02-21 02:41:00,26.0,19.0,30.27,NNE,25,0.0,2.0,73,0.00,,,0.00,,2013-02-21 08:41:00,
2013-02-21 02:52:00,26.0,19.0,30.29,NNE,25,0.0,1.0,73,0.00,,,0.00,,2013-02-21 08:52:00,
2013-02-21 03:01:00,26.0,19.0,30.27,NNE,13,0.0,1.0,74,0.00,,,0.00,,2013-02-21 09:01:00,
2013-02-21 03:11:00,26.0,19.0,30.27,NNE,13,0.0,1.0,74,0.00,,,0.00,,2013-02-21 09:11:00,
2013-02-21 03:22:00,27.0,20.0,30.28,NNE,13,0.0,1.0,74,0.00,,,0.00,,2013-02-21 09:22:00,
2013-02-21 03:31:00,27.0,20.0,30.27,NNE,13,0.0,2.0,74,0.00,,,0.00,,2013-02-21 09:31:00,
2013-02-21 03:41:00,27.0,20.0,30.27,NNE,13,0.0,2.0,74,0.00,,,0.00,,2013-02-21 09:41:00,
2013-02-21 03:52:00,27.0,20.0,30.28,ENE,62,0.0,4.0,73,0.00,,,0.00,,2013-02-21 09:52:00,
2013-02-21 04:01:00,27.0,20.0,30.27,WNW,291,0.0,2.0,73,0.00,,,0.00,,2013-02-21 10:01:00,
2013-02-21 04:11:00,27.0,20.0,30.27,WNW,291,0.0,2.0,73,0.00,,,0.00,,2013-02-21 10:11:00,
2013-02-21 04:21:00,27.0,20.0,30.26,NNW,342,0.0,3.0,73,0.00,,,0.00,,2013-02-21 10:21:00,
2013-02-21 04:31:00,27.0,20.0,30.27,WNW,296,0.0,5.0,73,0.00,,,0.00,,2013-02-21 10:31:00,
2013-02-21 04:41:00,27.0,20.0,30.27,WNW,296,0.0,5.0,73,0.00,,,0.00,,2013-02-21 10:41:00,
2013-02-21 04:51:00,27.0,19.0,30.27,NNW,337,1.0,2.0,72,0.00,,,0.00,,2013-02-21 10:51:00,
2013-02-21 05:01:00,28.0,20.0,30.29,North,360,1.0,2.0,71,0.00,,,0.00,,2013-02-21 11:01:00,
2013-02-21 05:11:00,28.0,20.0,30.29,North,360,1.0,2.0,71,0.00,,,0.00,,2013-02-21 11:11:00,
2013-02-21 05:21:00,28.0,20.0,30.28,ENE,61,1.0,3.0,71,0.00,,,0.00,,2013-02-21 11:21:00,
2013-02-21 05:31:00,28.0,20.0,30.28,NE,42,3.0,6.0,70,0.00,,,0.00,,2013-02-21 11:31:00,
2013-02-21 05:41:00,28.0,20.0,30.28,NE,42,3.0,6.0,70,0.00,,,0.00,,2013-02-21 11:41:00,
2013-02-21 05:52:00,28.0,19.0,30.27,NNE,30,1.0,8.0,69,0.00,,,0.00,,2013-02-21 11:52:00,
2013-02-21 06:01:00,28.0,19.0,30.26,East,90,4.0,7.0,69,0.00,,,0.00,,2013-02-21 12:01:00,
2013-02-21 06:11:00,28.0,19.0,30.26,East,90,4.0,7.0,69,0.00,,,0.00,,2013-02-21 12:11:00,
2013-02-21 06:21:00,28.0,19.0,30.24,East,86,7.0,13.0,69,0.00,,,0.00,,2013-02-21 12:21:00,
2013-02-21 06:32:00,28.0,19.0,30.24,ENE,72,1.0,6.0,69,0.00,,,0.00,,2013-02-21 12:32:00,
2013-02-21 06:42:00,28.0,19.0,30.24,ENE,72,1.0,6.0,69,0.00,,,0.00,,2013-02-21 12:42:00,
2013-02-21 06:53:00,28.0,19.0,30.24,ENE,71,3.0,7.0,68,0.00,,,0.00,,2013-02-21 12:53:00,
2013-02-21 07:01:00,28.0,19.0,30.22,ENE,58,2.0,8.0,68,0.00,,,0.00,,2013-02-21 13:01:00,
2013-02-21 07:12:00,28.0,19.0,30.22,ENE,58,2.0,8.0,68,0.00,,,0.00,,2013-02-21 13:12:00,
2013-02-21 07:22:00,28.0,18.0,30.23,SW,227,1.0,4.0,67,0.00,,,0.00,,2013-02-21 13:22:00,
2013-02-21 07:32:00,28.0,18.0,30.22,ENE,72,2.0,7.0,67,0.00,,,0.00,,2013-02-21 13:32:00,
2013-02-21 07:41:00,28.0,18.0,30.22,ENE,72,2.0,7.0,67,0.00,,,0.00,,2013-02-21 13:41:00,
2013-02-21 07:52:00,29.0,19.0,30.22,NE,54,3.0,8.0,65,0.00,,,0.00,,2013-02-21 13:52:00,
2013-02-21 08:02:00,31.0,20.0,30.22,East,79,1.0,9.0,62,0.00,,,0.00,,2013-02-21 14:02:00,
2013-02-21 08:11:00,31.0,20.0,30.22,East,79,1.0,9.0,62,0.00,,,0.00,,2013-02-21 14:11:00,
2013-02-21 08:21:00,31.0,20.0,30.22,ENE,71,3.0,10.0,62,0.00,,,0.00,,2013-02-21 14:21:00,
2013-02-21 08:32:00,31.0,19.0,30.22,East,79,4.0,11.0,61,0.00,,,0.00,,2013-02-21 14:32:00,
2013-02-21 08:42:00,31.0,19.0,30.22,East,79,4.0,11.0,61,0.00,,,0.00,,2013-02-21 14:42:00,
2013-02-21 08:52:00,31.0,19.0,30.22,East,83,6.0,11.0,60,0.00,,,0.00,,2013-02-21 14:52:00,
2013-02-21 09:01:00,32.0,19.0,30.21,East,88,7.0,11.0,59,0.00,,,0.00,,2013-02-21 15:01:00,
2013-02-21 09:12:00,32.0,19.0,30.21,East,88,7.0,11.0,59,0.00,,,0.00,,2013-02-21 15:12:00,
2013-02-21 09:21:00,33.0,20.0,30.20,ENE,66,7.0,13.0,58,0.00,,,0.00,,2013-02-21 15:21:00,
2013-02-21 09:32:00,35.0,20.0,30.19,ESE,112,5.0,16.0,55,0.00,,,0.00,,2013-02-21 15:32:00,
2013-02-21 09:42:00,35.0,20.0,30.19,ESE,112,5.0,16.0,55,0.00,,,0.00,,2013-02-21 15:42:00,
2013-02-21 09:52:00,35.0,20.0,30.19,NE,41,9.0,14.0,54,0.00,,,0.00,,2013-02-21 15:52:00,
2013-02-21 10:01:00,35.0,20.0,30.17,East,97,9.0,19.0,54,0.00,,,0.00,,2013-02-21 16:01:00,
2013-02-21 10:12:00,35.0,20.0,30.18,ENE,68,6.0,15.0,53,0.00,,,0.00,,2013-02-21 16:12:00,
2013-02-21 10:21:00,35.0,20.0,30.18,ENE,68,6.0,15.0,53,0.00,,,0.00,,2013-02-21 16:21:00,
2013-02-21 10:32:00,36.0,21.0,30.17,East,86,6.0,12.0,54,0.00,,,0.00,,2013-02-21 16:32:00,
2013-02-21 10:42:00,36.0,20.0,30.16,East,82,6.0,14.0,51,0.00,,,0.00,,2013-02-21 16:42:00,
2013-02-21 10:52:00,36.0,20.0,30.16,East,82,6.0,14.0,51,0.00,,,0.00,,2013-02-21 16:52:00,
2013-02-21 11:01:00,36.0,19.0,30.15,East,86,8.0,14.0,50,0.00,,,0.00,,2013-02-21 17:01:00,
2013-02-21 11:11:00,36.0,19.0,30.15,East,86,8.0,14.0,50,0.00,,,0.00,,2013-02-21 17:11:00,
2013-02-21 11:21:00,37.0,20.0,30.14,NE,34,9.0,14.0,50,0.00,,,0.00,,2013-02-21 17:21:00,
2013-02-21 11:32:00,38.0,21.0,30.11,NNE,31,3.0,14.0,49,0.00,,,0.00,,2013-02-21 17:32:00,
2013-02-21 11:42:00,38.0,21.0,30.11,NNE,31,3.0,14.0,49,0.00,,,0.00,,2013-02-21 17:42:00,
2013-02-21 11:52:00,37.0,23.0,30.10,NNE,17,5.0,10.0,56,0.00,,,0.00,,2013-02-21 17:52:00,
2013-02-21 12:01:00,38.0,23.0,30.06,NE,55,3.0,9.0,55,0.00,,,0.00,,2013-02-21 18:01:00,
2013-02-21 12:11:00,38.0,23.0,30.06,NE,55,3.0,9.0,55,0.00,,,0.00,,2013-02-21 18:11:00,
2013-02-21 12:22:00,38.0,23.0,30.06,ESE,110,3.0,10.0,54,0.00,,,0.00,,2013-02-21 18:22:00,
2013-02-21 12:31:00,38.0,23.0,30.05,NNW,344,2.0,8.0,54,0.00,,,0.00,,2013-02-21 18:31:00,
2013-02-21 12:42:00,38.0,23.0,30.05,NNW,344,2.0,8.0,54,0.00,,,0.00,,2013-02-21 18:42:00,
2013-02-21 12:52:00,39.0,22.0,30.04,NNW,344,3.0,8.0,50,0.00,,,0.00,,2013-02-21 18:52:00,
2013-02-21 13:01:00,39.0,22.0,29.98,East,89,3.0,14.0,51,0.00,,,0.00,,2013-02-21 19:01:00,
2013-02-21 13:12:00,39.0,22.0,29.98,East,89,3.0,14.0,51,0.00,,,0.00,,2013-02-21 19:12:00,
2013-02-21 13:21:00,38.0,22.0,29.98,ENE,78,7.0,12.0,51,0.00,,,0.00,,2013-02-21 19:21:00,
2013-02-21 13:31:00,38.0,24.0,29.99,ENE,64,2.0,10.0,56,0.00,,,0.00,,2013-02-21 19:31:00,
2013-02-21 13:41:00,38.0,24.0,29.99,ENE,64,2.0,10.0,56,0.00,,,0.00,,2013-02-21 19:41:00,
2013-02-21 13:52:00,38.0,25.0,29.98,East,85,4.0,10.0,58,0.00,,,0.00,,2013-02-21 19:52:00,
2013-02-21 14:01:00,38.0,25.0,29.99,ENE,62,3.0,12.0,59,0.00,,,0.00,,2013-02-21 20:01:00,
2013-02-21 14:11:00,37.0,27.0,30.00,East,89,1.0,6.0,67,0.02,,,0.02,,2013-02-21 20:11:00,
2013-02-21 14:21:00,37.0,27.0,30.00,East,89,1.0,6.0,67,0.02,,,0.02,,2013-02-21 20:21:00,
2013-02-21 14:32:00,36.0,29.0,30.01,ENE,58,0.0,1.0,77,0.03,,,0.03,,2013-02-21 20:32:00,
2013-02-21 14:53:00,36.0,30.0,30.01,ENE,58,0.0,1.0,80,0.05,,,0.05,,2013-02-21 20:53:00,
2013-02-21 15:02:00,35.0,31.0,30.02,ENE,58,0.0,2.0,86,0.09,,,0.09,,2013-02-21 21:02:00,
2013-02-21 15:11:00,35.0,32.0,30.01,WNW,302,0.0,3.0,88,0.11,,,0.12,,2013-02-21 21:11:00,
2013-02-21 15:21:00,35.0,32.0,30.01,WNW,302,0.0,3.0,88,0.11,,,0.12,,2013-02-21 21:21:00,
2013-02-21 15:31:00,35.0,32.0,30.01,NNE,18,1.0,4.0,89,0.11,,,0.14,,2013-02-21 21:31:00,
2013-02-21 15:42:00,35.0,32.0,30.01,WNW,294,0.0,5.0,88,0.13,,,0.18,,2013-02-21 21:42:00,
2013-02-21 15:52:00,35.0,32.0,30.01,WNW,294,0.0,5.0,88,0.13,,,0.18,,2013-02-21 21:52:00,
2013-02-21 16:01:00,34.0,31.0,29.99,NNW,335,0.0,5.0,89,0.14,,,0.23,,2013-02-21 22:01:00,
2013-02-21 16:11:00,34.0,31.0,29.99,NNW,335,0.0,5.0,89,0.14,,,0.23,,2013-02-21 22:11:00,
2013-02-21 16:21:00,34.0,31.0,29.97,NE,55,2.0,8.0,90,0.18,,,0.30,,2013-02-21 22:21:00,
2013-02-21 16:31:00,34.0,32.0,29.96,WSW,244,1.0,10.0,91,0.23,,,0.37,,2013-02-21 22:31:00,
2013-02-21 16:42:00,34.0,32.0,29.96,WSW,244,1.0,10.0,91,0.23,,,0.37,,2013-02-21 22:42:00,
2013-02-21 16:52:00,35.0,33.0,29.98,NW,326,4.0,7.0,92,0.24,,,0.42,,2013-02-21 22:52:00,
2013-02-21 17:01:00,34.0,32.0,29.93,NW,320,1.0,8.0,92,0.23,,,0.46,,2013-02-21 23:01:00,
2013-02-21 17:11:00,34.0,32.0,29.93,NW,320,1.0,8.0,92,0.23,,,0.46,,2013-02-21 23:11:00,
2013-02-21 17:21:00,35.0,33.0,29.92,ENE,65,6.0,10.0,92,0.20,,,0.50,,2013-02-21 23:21:00,
2013-02-21 17:31:00,34.0,32.0,29.86,ENE,76,10.0,19.0,93,0.18,,,0.55,,2013-02-21 23:31:00,
2013-02-21 17:41:00,34.0,32.0,29.86,ENE,76,10.0,19.0,93,0.18,,,0.55,,2013-02-21 23:41:00,
2013-02-21 17:52:00,35.0,33.0,29.89,West,274,3.0,13.0,94,0.15,,,0.57,,2013-02-21 23:52:00,
2013-02-21 18:01:00,35.0,33.0,29.91,ENE,59,5.0,12.0,94,0.19,,,0.65,,2013-02-22 00:01:00,
2013-02-21 18:11:00,35.0,33.0,29.91,ENE,59,5.0,12.0,94,0.19,,,0.65,,2013-02-22 00:11:00,
2013-02-21 18:21:00,35.0,34.0,29.94,NW,311,0.0,5.0,95,0.22,,,0.72,,2013-02-22 00:21:00,
2013-02-21 18:31:00,35.0,34.0,29.93,East,95,4.0,7.0,96,0.20,,,0.75,,2013-02-22 00:31:00,
2013-02-21 18:41:00,35.0,34.0,29.93,East,95,4.0,7.0,96,0.20,,,0.75,,2013-02-22 00:41:00,
2013-02-21 18:52:00,35.0,34.0,29.93,NE,37,1.0,6.0,97,0.23,,,0.80,,2013-02-22 00:52:00,
2013-02-21 19:01:00,35.0,34.0,29.93,East,88,4.0,9.0,98,0.23,,,0.87,,2013-02-22 01:01:00,
2013-02-21 19:11:00,35.0,34.0,29.93,East,88,4.0,9.0,98,0.23,,,0.87,,2013-02-22 01:11:00,
2013-02-21 19:21:00,35.0,34.0,29.92,East,96,6.0,9.0,98,0.19,,,0.90,,2013-02-22 01:21:00,
2013-02-21 19:32:00,36.0,35.0,29.92,ENE,68,5.0,9.0,98,0.17,,,0.92,,2013-02-22 01:32:00,
2013-02-21 19:42:00,36.0,35.0,29.92,ENE,68,5.0,9.0,98,0.17,,,0.92,,2013-02-22 01:42:00,
2013-02-21 19:52:00,36.0,35.0,29.92,East,83,8.0,12.0,98,0.13,,,0.93,,2013-02-22 01:52:00,
2013-02-21 20:02:00,36.0,35.0,29.90,ENE,72,7.0,13.0,98,0.06,,,0.93,,2013-02-22 02:02:00,
2013-02-21 20:11:00,36.0,35.0,29.90,ENE,72,7.0,13.0,98,0.06,,,0.93,,2013-02-22 02:11:00,
2013-02-21 20:21:00,36.0,35.0,29.89,ENE,73,5.0,16.0,98,0.03,,,0.93,,2013-02-22 02:21:00,
2013-02-21 20:31:00,37.0,36.0,29.87,ENE,59,9.0,14.0,98,0.03,,,0.95,,2013-02-22 02:31:00,
2013-02-21 20:42:00,37.0,36.0,29.87,ENE,59,9.0,14.0,98,0.03,,,0.95,,2013-02-22 02:42:00,
2013-02-21 20:52:00,37.0,36.0,29.86,East,86,9.0,14.0,98,0.02,,,0.95,,2013-02-22 02:52:00,
2013-02-21 21:01:00,37.0,36.0,29.85,ENE,71,9.0,17.0,97,0.03,,,0.96,,2013-02-22 03:01:00,
2013-02-21 21:11:00,37.0,36.0,29.85,ENE,71,9.0,17.0,97,0.03,,,0.96,,2013-02-22 03:11:00,
2013-02-21 21:21:00,38.0,37.0,29.88,ENE,71,11.0,20.0,97,0.03,,,0.96,,2013-02-22 03:21:00,
2013-02-21 21:31:00,38.0,37.0,29.85,ESE,112,5.0,16.0,97,0.01,,,0.96,,2013-02-22 03:31:00,
2013-02-21 21:41:00,38.0,37.0,29.85,ESE,112,5.0,16.0,97,0.01,,,0.96,,2013-02-22 03:41:00,
2013-02-21 21:52:00,38.0,37.0,29.88,WSW,240,0.0,13.0,97,0.01,,,0.96,,2013-02-22 03:52:00,
2013-02-21 22:01:00,38.0,37.0,29.88,NNW,335,0.0,3.0,97,0.02,,,0.98,,2013-02-22 04:01:00,
2013-02-21 22:11:00,38.0,37.0,29.88,NNW,335,0.0,3.0,97,0.02,,,0.98,,2013-02-22 04:11:00,
2013-02-21 22:21:00,38.0,37.0,29.88,ENE,73,0.0,5.0,98,0.02,,,0.98,,2013-02-22 04:21:00,
2013-02-21 22:32:00,38.0,37.0,29.87,ENE,68,1.0,2.0,98,0.02,,,0.98,,2013-02-22 04:32:00,
2013-02-21 22:42:00,38.0,37.0,29.87,ENE,68,1.0,2.0,98,0.02,,,0.98,,2013-02-22 04:42:00,
2013-02-21 22:52:00,38.0,37.0,29.87,ENE,73,1.0,2.0,98,0.03,,,0.99,,2013-02-22 04:52:00,
2013-02-21 23:01:00,38.0,38.0,29.87,ENE,66,1.0,3.0,99,0.01,,,0.99,,2013-02-22 05:01:00,
2013-02-21 23:12:00,38.0,38.0,29.87,ENE,66,1.0,3.0,99,0.01,,,0.99,,2013-02-22 05:12:00,
2013-02-21 23:22:00,39.0,39.0,29.86,ENE,71,4.0,6.0,100,0.02,,,1.00,,2013-02-22 05:22:00,
2013-02-21 23:32:00,39.0,39.0,29.86,ENE,71,1.0,3.0,100,0.02,,,1.00,,2013-02-22 05:32:00,
2013-02-21 23:41:00,39.0,39.0,29.86,ENE,71,1.0,3.0,100,0.02,,,1.00,,2013-02-22 05:41:00,
2013-02-21 23:52:00,39.0,39.0,29.86,ENE,71,0.0,2.0,100,0.02,,,1.01,,2013-02-22 05:52:00,